Regional Weather Roundup
Issued by NWS

Home | Current Version | Previous Version | Graphics & Text | Print | Product List | Glossary On
Versions: 1 2 3 4 5 6 7 8 9 10 11 12 13 14 15 16 17 18 19 20 21 22 23 24 25 26 27 28 29 30 31 32 33 34 35 36 37 38 39 40 41 42 43 44 45 46 47 48 49 50
000
ASUS43 KTOP 231708
RWRKS

WEATHER ROUNDUP FOR KANSAS
NATIONAL WEATHER SERVICE GOODLAND KS
1200 PM CDT SUN JUL 23 2017

NOTE:  "FAIR" INDICATES FEW OR NO CLOUDS BELOW 12,000 FEET WITH NO
SIGNIFICANT WEATHER AND/OR OBSTRUCTIONS TO VISIBILITY.

KSZ001>006-013>018-027>032-041>047-231800-
NORTHWEST KANSAS

CITY           SKY/WX    TMP DP  RH WIND       PRES   REMARKS
GOODLAND       SUNNY     86  56  35 VRB6      30.12S
HAYS           SUNNY     87  68  52 NW5       30.03S
HILL CITY      SUNNY     85  73  67 NE14      30.05F
RUSSELL        SUNNY     88  65  46 NW5       30.01R
$$

KSZ061>065-074>080-084>089-231800-
SOUTHWEST KANSAS

CITY           SKY/WX    TMP DP  RH WIND       PRES   REMARKS
DODGE CITY     MOSUNNY   83  65  54 SW6       30.07S
ELKHART          N/A     79  56  45 NE10        N/A
GARDEN CITY    MOSUNNY   81  66  60 VRB3      30.09S
LIBERAL        SUNNY     81  66  60 NE8       30.08S
PRATT          PTSUNNY   79  67  66 W3        30.04S
$$

KSZ066>073-081>083-090>101-231800-
SOUTHEAST KANSAS

CITY           SKY/WX    TMP DP  RH WIND       PRES   REMARKS
CHANUTE        PTSUNNY   80  70  71 SE5       29.98S
COFFEYVILLE    CLOUDY    84  68  58 SE9       29.96F
HUTCHINSON     SUNNY     87  69  54 N7        29.99R
MEDICINE LODGE   N/A     84  70  62 W6        29.99F
NEWTON         SUNNY     84  70  62 NW7       30.00S
PARSONS        CLOUDY    81  70  69 VRB3      29.99R
WICHITA INTL   MOSUNNY   87  72  60 NE7       29.98R
WICHITA JABRA  MOSUNNY   85  69  58 N5        29.98S
WICHITA MCCONL MOSUNNY   86  70  59 NE5       29.98S
WINFIELD       MOSUNNY   88  68  51 VRB3      29.97F
$$

KSZ007>012-019>026-033>040-048>060-102>105-231800-
NORTHEAST KANSAS

CITY           SKY/WX    TMP DP  RH WIND       PRES   REMARKS
CONCORDIA      SUNNY     88  67  49 N8        30.00R
EMPORIA        SUNNY     87  69  54 NW7       29.96R
LAWRENCE       SUNNY     88  74  63 N6        29.93F HX  96
MANHATTAN      SUNNY     88  67  49 N7        29.95F
MARYSVILLE     SUNNY     88  72  58 N7        29.97S
OLATHE IND     SUNNY     83  72  69 CALM      29.95S
OLATHE EXE     SUNNY     84  71  65 N7        29.95S
SALINA         SUNNY     88  69  53 N6        29.98F
TOPEKA BILLARD SUNNY     88  76  67 N8        29.93F HX  99
TOPEKA FORBES  SUNNY     88  74  63 N9        29.94S HX  96
$$




USA.gov is the U.S. government's official web portal to all federal, state and local government web resources and services.